STARLINK-2385, 47804

Orbit data source: Space-Track

STARLINK-2385, 47804 is a payload satellite owned by SpaceX/Seattle (US) in LEO that was launched on Thu, 11 Mar 2021 UTC via an FALCON 9 launch vehicle from the Air Force Eastern Test Range (AFETR). Payload-class satellites include a variety of spacecraft equipped with specific instruments for various scientific and technological missions. These include communications satellites like Starlink; space stations such as the ISS; scientific satellites like the Hubble; Earth observation satellites from companies like Planet Labs, Umbra, and HawkEye 360; GPS; miniature CubeSats for education and research; and military/defense satellites.

Loading next visibility...
Identifier
47804, 2021-018T
Orbit
LEO
Country
Flag of USUS
Related business
Manufacturer
SpaceX/Seattle
Mission
Operational Commercial Communications
Bus & Motor
STARLINK, Unknown motor
Mass
260 kg wet, ~248 kg dry
Launch date (UTC)
2021-03-11 (5 years ago)
Launch vehicle
FALCON 9
Launch site
Air Force Eastern Test Range (AFETR)
Object type
Payload
Rocket body
Debris
Shape & HBR
Box + 1 Pan, 10.1 m
Radar Cross Section
13.562 m², Large (>1 m²)

Expand to show TLE details & history
Last TLE update: 14 hours ago

TLE from 14 hours ago
0 STARLINK-2385
1 47804U 21018T   26248.03832972  .00021723  00000-0  69880-3 0  9990
2 47804  53.1595 115.5313 0000918 101.1578 258.9527 15.32199695304378
Epoch: 2026-09-05T00:55Z
TLE epoch observation values (Epoch: 2026-09-05T00:55:11.687Z)
Latitude
-0.00003°
Longitude
117.57904°
Altitude
470.272 km
Speed
7.632 km/s
True Right ascension
07h 42m 07s
True Declination
0° 00' 00"
Sunlit
Object was in daylight at epoch
Visualization orbit readout
Latitude
Unknown
Longitude
Unknown
Altitude
Unknown
Speed
Unknown
Apparent Right ascension
Unknown
Apparent Declination
Unknown
Sunlit
N/A
Visualization observer readout
Local Sidereal Time
06:37:38
Azimuth
Unknown
Elevation
Unknown
Doppler factor
Unknown
Orbital elements
Apogee altitude
470.136 km
Perigee altitude
468.879 km
Semi-major axis
6,847.645 km
Eccentricity
0.00009
Inclination
53.1595°
RAAN
115.5313°
Arg. of periapsis
101.1578°
True anomaly
258.94238°
Mean anomaly
258.9527°
Eccentric anomaly
258.94754°
Mean motion
3.83029 °/min
Orbital period
93.99 mins
BSTAR
0.0006988
Loading maneuver chart data...
Computing Atmospheric mass density...
Loading historical data...
Loading historical data...
Loading historical data...
Loading historical data...
Loading historical data...
Loading historical data...
Loading historical data...

Documentation

Showing up to 5 results
|